Regional Weather Roundup
Issued by NWS Bismarck, ND

Home | Current Version | Previous Version | Text Only | Print | Product List | Glossary On
Versions: 1 2 3 4 5 6 7 8 9 10 11 12 13 14 15 16 17 18 19 20 21 22 23 24 25 26 27 28 29 30 31 32 33 34 35 36 37 38 39 40 41 42 43 44 45 46 47 48 49 50
000
ASUS43 KBIS 050310
RWRBIS

NWR BROADCAST TEXT
NATIONAL WEATHER SERVICE BISMARCK ND
1000 PM CDT FRI SEP 04 2015

NOTE: "FAIR" INDICATES FEW OR NO CLOUDS BELOW 12,000 FEET WITH NO
SIGNIFICANT WEATHER AND/OR OBSTRUCTIONS TO VISIBILITY.


CITY           SKY/WX    TMP DP  RH WIND       PRES   REMARKS
WILLISTON      CLOUDY    65  56  72 NE15      29.92R
MINOT          CLOUDY    62  58  86 N12       29.89R
MINOT AFB      CLOUDY    61  61 100 N9        29.89R
BISMARCK       CLEAR     75  69  81 NE7       29.81R
DICKINSON      PTCLDY    64  60  87 NE14      29.85R
GARRISON         N/A     66  60  81 NE15      29.87R
HETTINGER ARPT CLEAR     77  55  46 E14       29.82R
JAMESTOWN      CLEAR     70  68  93 SE3       29.83R
CROSBY         CLOUDY    61  54  77 NE13      29.97R
HARVEY         MOCLDY    72  72 100 NE7       29.86S
HAZEN          CLOUDY    68  61  77 NE9G18    29.86S
LINTON         FAIR      73  72  94 E7        29.82R
OAKES            N/A     70  70 100 E7        29.82S
RUGBY          CLOUDY    64  64 100 NE10      29.88S
STANLEY        CLOUDY    59  59 100 NE9G17    29.93S FOG
$$

CITY           SKY/WX    TMP DP  RH WIND       PRES   REMARKS
GRAND FORKS    PTCLDY    67  66  97 N3        29.83R
GRAND FORKS AF MOCLDY    65  65  98 N5        29.84S
DEVILS LAKE    CLEAR     68  63  83 NE6       29.85S
FARGO          MOCLDY    76  72  87 SE7       29.81S
CAVALIER       FAIR      63  63 100 S5        29.86R
GRAFTON        FAIR      66  66 100 N5        29.86R
GWINNER        CLOUDY    73  73 100 E5        29.83S
LANGDON        FOG       66  66 100 N13       29.88R VSB 1/4
ROLLA          CLOUDY    57  57 100 N13       29.93R FOG
WALHALLA       FAIR      64  64 100 MISG      29.87R
$$

CITY           SKY/WX    TMP DP  RH WIND       PRES   REMARKS
ABERDEEN       CLEAR     74  69  85 SE7       29.80S
MOBRIDGE       CLEAR     77  73  87 E12       29.78R
BUFFALO          N/A     72  64  76 NE13      29.77R
RAPID CITY     MOCLDY    73  59  61 SE9       29.82R
GLASGOW        CLOUDY    58  45  62 NE20G29   29.95R
SIDNEY         CLOUDY    68  57  68 NE12        N/A
WOLF POINT     CLOUDY    68  49  50 NE20      29.92R
GLENDIVE       PTCLDY    64  57  77 N8        29.88S
MILES CITY     CLEAR     66  56  70 NE10      29.86R
BAKER          CLEAR     66  59  78 N6        29.87R
$$

CITY           SKY/WX    TMP DP  RH WIND       PRES   REMARKS
BILLINGS       MOCLDY    61  44  53 NE16G22   29.96R THUNDER
GREAT FALLS    CLOUDY    49  48  97 N12       30.00S
REGINA         CLOUDY    54  46  76 N15G25    30.05S
$$




USA.gov is the U.S. government's official web portal to all federal, state and local government web resources and services.